This demonstration page uses our WeatherBlox Daily Observations layout. Learn more.

Left ArrowRight Arrow

39.29038, -76.61219

Hourly Observations for September 27, 2020

Temp ( °F °C ) Dew Point ( °F °C ) Humidity (%) Winds ( mph kmh ) Pressure ( in mb ) Visibility ( mi km ) Precip ( " mm )
12:54 am 00:54 Cloudy with Mist and Fog 69 20.6 66 18.9 90 90 Calm 29.97 1015 6 10 0.00 0.00
1:23 am 01:23 Cloudy with Mist and Fog 69 20.6 66 18.9 90 90 Calm 29.96 1014 6 10 0.00 0.00
1:54 am 01:54 Cloudy with Mist and Fog 69 20.6 66 18.9 90 90 Calm 29.96 1015 4 6 0.00 0.00
2:16 am 02:16 Cloudy with Fog 69 20.6 66 18.9 90 90 N 3 6 29.96 1014 1 1 0.00 0.00
2:30 am 02:30 Mostly Cloudy with Fog 68 20 66 18.9 93 93 Calm 29.96 1014 1 2 0.00 0.00
2:54 am 02:54 Mostly Cloudy with Fog 68 20 67 19.4 96 96 ENE 3 6 29.95 1014 1 2 0.00 0.00
3:54 am 03:54 Mostly Cloudy with Fog 68 20 67 19.4 96 96 N 3 6 29.95 1014 1 2 0.00 0.00
4:54 am 04:54 Mostly Cloudy with Fog 69 20.6 67 19.4 93 93 Calm 29.95 1014 1 2 0.00 0.00
5:54 am 05:54 Mostly Cloudy with Fog 69 20.6 68 20 96 96 E 3 6 29.95 1014 1 2 0.00 0.00
6:04 am 06:04 Mostly Cloudy with Fog 69 20.6 68 20 96 96 ENE 3 6 29.96 1014 0 0 0.00 0.00
6:54 am 06:54 Mostly Cloudy with Fog 69 20.6 67 19.4 93 93 NW 3 6 29.96 1015 0 0 0.00 0.00
7:23 am 07:23 Cloudy with Fog 68 20 67 19.4 96 96 NW 3 6 29.98 1015 1 1 0.00 0.00
7:54 am 07:54 Cloudy with Fog 68 20 66 18.9 93 93 WNW 5 7 29.98 1015 1 1 0.00 0.00
8:16 am 08:16 Cloudy with Mist and Fog 68 20 66 18.9 93 93 WNW 5 7 29.98 1015 1 2 0.00 0.00
8:54 am 08:54 Cloudy with Mist and Fog 68 20 67 19.4 96 96 NNW 5 7 29.98 1015 1 2 0.00 0.00
9:54 am 09:54 Cloudy with Drizzle 70 21.1 68 20 93 93 VRB 3 6 29.98 1015 1 2 0.00 0.00
10:31 am 10:31 Cloudy with Mist and Fog 70 21.1 68 20 93 93 E 7 11 29.99 1015 2 3 0.02 0.51
10:54 am 10:54 Cloudy with Drizzle 70 21.1 68 20 93 93 E 5 7 29.99 1016 2 3 0.03 0.76
11:17 am 11:17 Cloudy with Drizzle 71 21.7 68 20 90 90 Calm 29.98 1015 3 5 0.02 0.51
11:54 am 11:54 Cloudy 72 22.2 69 20.6 91 91 E 5 7 29.97 1015 7 11 0.03 0.76
12:54 pm 12:54 Cloudy 74 23.3 69 20.6 85 85 ENE 5 7 29.96 1014 10 16 0.00 0.00
1:33 pm 13:33 Cloudy 75 23.9 68 20 79 79 SE 6 9 29.94 1014 10 16 0.00 0.00
1:54 pm 13:54 Cloudy 75 23.9 67 19.4 76 76 SE 3 6 29.93 1014 10 16 0.00 0.00
2:48 pm 14:48 Mostly Cloudy 75 24 68 20 78 78 E 6 9 29.90 1013 10 16 0.00 0.00
2:54 pm 14:54 Mostly Cloudy 76 24.4 68 20 77 77 SE 3 6 29.91 1013 10 16 0.00 0.00
3:54 pm 15:54 Partly Cloudy 78 25.6 67 19.4 69 69 SSE 3 6 29.90 1012 10 16 0.00 0.00
4:20 pm 16:20 Mostly Cloudy 79 26.1 68 20 69 69 E 6 9 29.89 1012 10 16 0.00 0.00
4:40 pm 16:40 Mostly Cloudy 77 25 68 20 74 74 VRB 6 9 29.88 1012 10 16 0.00 0.00
4:54 pm 16:54 Mostly Cloudy 76 24.4 68 20 77 77 E 9 15 29.88 1012 10 16 0.00 0.00
5:54 pm 17:54 Mostly Cloudy 75 23.9 68 20 79 79 E 7 11 29.88 1012 10 16 0.00 0.00
6:54 pm 18:54 Partly Cloudy 72 22.2 67 19.4 84 84 E 7 11 29.88 1012 10 16 0.00 0.00
7:54 pm 19:54 Mostly Cloudy 71 21.7 67 19.4 87 87 E 3 6 29.88 1012 10 16 0.00 0.00
8:54 pm 20:54 Mostly Cloudy 71 21.7 68 20 90 90 Calm 29.91 1013 10 16 0.00 0.00
9:54 pm 21:54 Mostly Cloudy 71 21.7 67 19.4 87 87 SSW 3 6 29.91 1013 10 16 0.00 0.00
10:54 pm 22:54 Cloudy 71 21.7 67 19.4 87 87 S 3 6 29.90 1013 10 16 0.00 0.00
11:54 pm 23:54 Mostly Cloudy 70 21.1 67 19.4 90 90 SSE 3 6 29.89 1012 10 16 0.00 0.00

Powered by AerisWeather